TSIOLKOVSKY-RYAZAN 2 (*)

Last updated on Sat Jan 28 2023 00:02:07 GMT+0000 (Coordinated Universal Time)

1 53313U 98067TY 23026.97308729 .06837664 12107-4 11989-2 0 9998 2 53313 51.6138 286.8016 0007101 224.7047 135.3404 16.31921957 29709

Satellite not in orbit